DW4464 Weather Reports


time (UTC)temp
F
wind
direction
speed
knots
gust
knots
rain 1hr
in
rain 24hr
in
rain mn
in
humidity
%
barometer
mb
20190920074508 54 143 0.0 0.0 0.00 0.00 0.00 100 1097.6
20190920071706 56 143 0.0 2.6 0.00 0.00 0.00 30 1097.2
20190920071502 56 143 0.0 2.6 0.00 0.00 0.00 30 1097.2
20190920070156 57 82 0.9 3.5 0.00 0.00 0.00 34 1097.1
20190920064653 57 6 0.0 1.7 0.00 0.00 0.00 32 1096.9
20190920063115 57 71 0.9 2.6 0.00 0.00 0.00 41 1096.9
20190920061642 57 69 0.9 3.5 0.00 0.00 0.00 47 1097.1
20190920060117 58 69 2.6 5.2 0.00 0.00 0.00 55 1097.0
20190920054612 58 63 1.7 2.6 0.00 0.00 0.00 52 1097.0
20190920053026 58 65 0.0 0.9 0.00 0.00 0.00 52 1097.0
20190920051542 58 65 0.0 0.9 0.00 0.00 0.00 52 1097.0
20190920050030 59 65 0.0 0.9 0.00 0.00 0.00 55 1097.1
20190920044521 58 66 0.0 1.7 0.00 0.00 0.00 53 1097.0
20190920043014 58 62 0.9 2.6 0.00 0.00 0.00 50 1097.0
20190920041506 59 64 0.0 1.7 0.00 0.00 0.00 53 1097.2
20190920040010 60 64 0.0 1.7 0.00 0.00 0.00 58 1097.2
20190920034608 61 322 0.0 1.7 0.00 0.00 0.00 61 1097.1
20190920033132 61 109 0.0 0.0 0.00 0.00 0.00 63 1096.9
20190920031644 63 352 0.0 1.7 0.00 0.00 0.00 62 1097.0
20190920030120 63 330 0.0 3.5 0.00 0.00 0.00 58 1097.1
20190920024621 64 269 0.0 2.6 0.00 0.00 0.00 55 1097.0
20190920023120 64 313 0.0 0.0 0.00 0.00 0.00 54 1096.9
20190920021638 66 316 0.0 0.0 0.00 0.00 0.00 52 1097.0
20190920020235 67 267 0.0 5.2 0.00 0.00 0.00 49 1097.1
20190920014552 68 296 0.9 3.5 0.00 0.00 0.00 47 1097.1
20190920013055 70 300 0.0 2.6 0.00 0.00 0.00 45 1097.1
20190920011619 70 270 0.0 6.1 0.00 0.00 0.00 44 1097.1
20190920010042 71 210 1.7 5.2 0.00 0.00 0.00 43 1097.1
20190920004554 71 240 0.9 8.7 0.00 0.00 0.00 42 1097.0
20190920003034 71 254 1.7 5.2 0.00 0.00 0.00 42 1097.1
20190920001525 71 248 2.6 7.0 0.00 0.00 0.00 42 1096.9
20190920000045 71 6 4.3 7.8 0.00 0.00 0.00 43 1097.1
20190919234521 71 261 0.9 5.2 0.00 0.00 0.00 42 1097.3
20190919233008 70 307 2.6 8.7 0.00 0.00 0.00 43 1097.3
20190919230151 71 334 3.5 8.7 0.00 0.00 0.00 42 1097.5
20190919224731 70 270 2.6 7.0 0.00 0.00 0.00 41 1097.5
20190919223116 71 284 2.6 7.0 0.00 0.00 0.00 44 1097.4
20190919221601 71 37 0.9 8.7 0.00 0.00 0.00 46 1097.5
20190919220047 70 286 3.5 7.0 0.00 0.00 0.00 46 1097.7
20190919214606 71 320 1.7 7.0 0.00 0.00 0.00 41 1097.8
20190919213033 70 309 2.6 7.8 0.00 0.00 0.00 44 1097.9
20190919211623 70 307 1.7 7.0 0.00 0.00 0.00 46 1098.0
20190919210043 69 335 0.9 6.1 0.00 0.00 0.00 49 1098.1
20190919204538 69 252 3.5 7.8 0.00 0.00 0.00 48 1098.3
20190919203022 69 257 2.6 9.6 0.00 0.00 0.00 51 1098.3
20190919201507 69 261 2.6 7.8 0.00 0.00 0.00 52 1098.6
20190919200003 68 224 3.5 7.0 0.00 0.00 0.00 50 1098.8
20190919194713 68 287 3.5 8.7 0.00 0.03 0.00 52 1099.0
20190919193125 67 242 2.6 7.0 0.00 0.03 0.00 55 1099.1
20190919191643 66 253 2.6 7.0 0.00 0.03 0.00 56 1099.2
20190919190202 67 184 0.9 8.7 0.00 0.03 0.00 58 1099.4
20190919184636 65 231 2.6 6.1 0.00 0.07 0.00 60 1099.5
20190919183117 65 252 2.6 5.2 0.00 0.07 0.00 60 1099.4
20190919181608 64 321 3.5 6.1 0.00 0.07 0.00 59 1099.6
20190919180055 65 264 2.6 5.2 0.00 0.07 0.00 61 1099.7
20190919174535 64 254 1.7 5.2 0.00 0.28 0.00 62 1099.6
20190919173036 64 277 2.6 8.7 0.00 0.28 0.00 61 1099.5
20190919171520 64 300 0.9 3.5 0.00 0.28 0.00 61 1099.5
20190919170029 64 309 0.0 3.5 0.00 0.28 0.00 61 1099.5
20190919164515 63 308 0.9 3.5 0.00 0.30 0.00 61 1099.7
20190919163018 63 210 0.0 1.7 0.00 0.30 0.00 60 1099.8
20190919161502 60 326 0.0 1.7 0.00 0.30 0.00 45 1099.9
20190919160237 60 67 0.0 0.0 0.00 0.30 0.00 9 1100.0
20190919154704 57 340 0.0 1.7 0.00 0.30 0.00 100 1100.0
20190919153113 57 81 0.9 1.7 0.00 0.30 0.00 100 1099.8
20190919151627 55 328 0.0 0.0 0.00 0.30 0.00 100 1099.6
20190919150135 54 67 0.0 0.0 0.00 0.30 0.00 100 1099.5
20190919144622 52 67 0.0 0.0 0.00 0.30 0.00 100 1099.3
20190919143051 51 67 0.0 0.0 0.00 0.30 0.00 100 1099.2
20190919141619 49 67 0.0 0.0 0.00 0.30 0.00 100 1099.0
20190919140045 49 67 0.0 0.0 0.00 0.30 0.00 100 1098.9
20190919134546 49 67 0.0 0.9 0.00 0.30 0.00 100 1098.7
20190919133013 49 13 0.0 0.0 0.00 0.30 0.00 100 1098.5
20190919131509 49 6 0.0 0.0 0.00 0.30 0.00 100 1098.5
20190919130003 49 6 0.0 0.0 0.00 0.30 0.00 100 1098.4
20190919124700 50 6 0.0 0.0 0.00 0.30 0.00 100 1098.3
20190919123249 50 6 0.0 0.0 0.00 0.30 0.00 100 1098.3
20190919121716 50 6 0.0 0.0 0.00 0.30 0.00 100 1098.2
20190919120122 50 6 0.0 0.0 0.00 0.30 0.00 100 1098.1
20190919114610 50 6 0.0 0.0 0.00 0.30 0.00 100 1098.1
20190919113143 50 6 0.0 0.9 0.00 0.30 0.00 100 1098.1
20190919111633 50 6 0.0 0.0 0.00 0.30 0.00 100 1098.1
20190919110120 51 6 0.0 0.9 0.00 0.30 0.00 100 1098.1
20190919104602 51 335 0.0 0.0 0.00 0.30 0.00 100 1098.0
20190919103057 52 334 0.0 0.0 0.00 0.30 0.00 100 1098.1
20190919101523 52 335 0.0 0.0 0.00 0.30 0.00 100 1098.1
20190919100036 53 334 0.0 0.0 0.00 0.30 0.00 100 1098.2
20190919094513 54 335 0.0 0.9 0.00 0.30 0.00 100 1098.1
20190919093010 52 24 0.0 0.9 0.00 0.30 0.00 100 1098.0
20190919091706 52 60 0.0 0.0 0.00 0.30 0.00 100 1097.9
20190919090140 53 51 0.0 0.0 0.00 0.30 0.00 100 1098.0
20190919084657 53 56 0.0 0.0 0.00 0.30 0.00 100 1098.0
20190919083142 54 56 0.0 0.0 0.00 0.30 0.00 100 1097.9
20190919081742 54 56 0.0 0.0 0.00 0.30 0.00 100 1098.0
20190919080102 55 56 0.0 0.0 0.00 0.30 0.00 100 1098.1